sat.trackr.live / text

‹ back to catalog

STARLINK-34668

NORAD 64814 · 2025-150AA

PAYLOAD ACTIVE UNKNOWN

§ Identity

Operator
Country
US
Launch date
2025-07-16
Launch site
AFWTR
Launch vehicle
Mass (kg)
RCS (m²)

Purposes: comms

External: N2YO · Heavens-Above · Gunter

§ Orbital elements

Epoch: 2026-09-20T14:13:52.444704Z

Period
96.11 min
Inclination
70.0038°
Eccentricity
0.0003369
Mean motion
14.98340933 rev/d
Perigee alt
569.7 km
Apogee alt
574.4 km
Semi-major
6,950.2 km
B*
2.4765e-4
RAAN
2.9400°
Arg perigee
264.1591°
Mean anomaly
95.9184°
Rev number
6,570

§ Raw data

STARLINK-346681 64814U 25150AA  26263.59296811  .00002864  00000+0  24765-3 0  99922 64814  70.0038   2.9400 0003369 264.1591  95.9184 14.98340933 65705

JSON: /api/v1/satellites/64814 · /tle

For live sub-satellite position, see the globe view (requires WebGL).

§ Visibility from observer

Set your observer location to see the next 7 days of passes ≥ 10°. The values pass through the URL so the page stays shareable.

No JS? Fill the form by hand. The geolocation button needs JavaScript.